Wind_Speed
39 38 38 38 39 39 36 32 30 28 26 25 24 23 22 20 19 18 17 16 14 14 13 12 11 10 9 9 9 9 8 8 7 6 5 4 4 3 3 2 2 2 3 3 4 5 6 6 7
41 41 41 41 42 41 37 33 31 30 28 27 26 25 24 22 21 20 18 17 16 15 14 13 12 12 11 10 10 10 9 9 8 7 7 6 5 5 4 4 4 4 4 5 5 6 6 7 7
44 44 44 44 44 41 37 34 32 31 30 29 28 27 26 24 22 21 20 18 17 16 15 15 14 13 12 12 12 11 11 11 10 9 8 8 7 7 6 6 6 6 6 7 7 7 7 8 8
47 47 47 47 45 41 38 36 34 33 32 31 30 28 27 25 24 22 21 20 19 18 17 16 15 14 13 13 13 13 12 12 12 11 10 9 9 8 8 8 8 8 8 9 8 8 9 9 9
49 49 50 49 46 43 40 38 36 35 34 33 32 30 28 27 25 24 23 22 21 20 19 18 17 15 15 14 14 14 13 13 13 12 12 11 11 11 10 10 10 10 10 9 9 10 10 10 11
50 51 51 50 46 44 41 40 39 37 36 34 34 33 31 29 28 26 25 24 23 22 21 20 19 17 17 16 16 15 15 15 14 13 13 13 13 13 12 12 11 11 11 11 11 11 12 12 12
51 51 51 49 47 45 43 42 41 39 38 36 35 34 33 31 30 29 27 26 25 24 23 22 21 20 19 18 18 17 17 16 15 15 15 14 14 14 14 13 13 13 13 12 12 13 13 13 13
51 52 51 50 48 46 44 43 42 41 40 39 37 36 34 33 32 31 29 28 27 26 25 24 23 22 21 20 20 19 19 18 17 17 16 16 16 16 16 16 15 15 15 15 14 14 14 15 15
51 52 52 50 48 47 45 45 44 43 41 41 40 38 37 35 34 33 32 31 29 28 27 25 25 24 23 22 22 21 20 19 19 19 18 18 17 18 18 17 17 17 17 17 17 16 17 17 17
52 53 51 50 49 48 47 46 45 44 43 42 41 40 39 37 36 35 34 32 31 30 28 27 26 26 25 24 23 23 22 21 21 20 20 20 20 20 19 19 19 19 19 18 18 19 19 19 19
51 51 51 51 50 49 48 48 47 46 45 43 42 40 40 38 37 37 36 34 33 32 31 29 28 28 27 26 25 25 24 23 22 22 22 22 21 21 21 20 20 21 21 20 20 20 21 21 21
51 51 51 51 51 50 49 48 48 48 46 45 44 42 40 40 38 37 37 36 35 33 32 31 30 29 29 28 27 27 26 25 25 24 24 23 23 23 23 22 22 23 22 22 23 23 23 23 23
49 51 51 51 50 51 51 50 49 49 47 47 46 44 43 42 40 39 39 38 37 36 34 33 32 31 30 30 29 29 28 27 27 27 26 26 25 25 25 25 25 25 25 25 25 25 25 25 25
47 50 51 51 51 52 52 52 51 49 49 48 47 45 44 43 42 41 41 40 38 37 36 35 34 33 32 32 31 31 30 29 29 29 28 28 28 28 27 27 27 27 27 27 27 27 27 27 27
45 48 50 50 51 52 52 52 51 49 50 49 48 47 46 44 43 42 41 41 39 38 37 37 36 35 34 34 33 32 31 31 31 31 31 31 30 30 29 29 29 29 29 29 28 28 29 29 29
43 45 48 49 50 51 52 52 51 50 49 50 49 48 47 46 44 43 42 42 41 40 39 38 37 36 35 34 34 33 33 33 33 33 33 32 32 32 31 31 31 31 31 31 31 30 31 31 31
42 44 47 47 48 50 52 52 51 50 49 49 50 49 48 47 46 45 43 43 42 41 41 40 39 38 37 36 36 35 35 35 35 34 34 34 34 33 33 33 33 33 33 33 32 32 32 33 33
40 42 44 45 45 47 50 51 51 49 48 48 49 49 49 48 47 45 44 43 43 42 42 41 40 40 38 38 38 37 37 37 37 36 36 36 36 35 35 35 36 35 35 34 34 34 34 35 35
38 40 41 42 43 44 47 49 49 49 48 48 48 49 49 48 47 47 45 44 44 43 42 42 42 41 41 40 39 39 39 38 38 38 37 37 37 36 37 36 37 37 37 36 36 35 36 36 36
37 38 38 40 40 42 44 47 47 48 48 47 47 47 48 47 47 47 46 45 44 44 43 43 42 43 42 42 41 40 41 40 40 39 39 38 37 37 36 37 38 38 38 38 38 37 37 38 38
33 34 35 37 38 39 40 43 45 46 46 46 46 47 47 47 47 46 45 44 44 44 44 44 44 44 44 43 43 43 42 42 42 41 40 40 40 39 39 39 39 39 40 40 40 39 39 39 39
30 31 32 34 36 37 39 41 44 44 45 45 45 45 46 46 46 46 45 44 44 45 45 45 45 44 45 45 45 45 44 43 43 42 42 42 42 41 41 41 40 40 41 41 41 40 40 40 39
29 30 31 31 32 34 37 39 41 42 43 44 44 45 45 45 45 46 46 46 45 45 45 45 45 46 45 45 45 46 46 45 45 44 44 43 43 42 42 41 41 42 43 43 43 43 42 41 40
26 27 29 29 30 33 34 38 40 40 40 42 43 45 46 46 47 47 47 47 46 46 46 46 46 46 46 46 46 46 46 45 45 45 46 46 45 44 44 43 44 44 44 43 43 43 42 42 41
25 26 26 28 30 32 33 35 38 39 38 39 42 44 45 46 47 47 47 47 46 45 46 46 46 46 45 45 45 46 47 47 46 46 46 46 46 45 46 46 45 45 44 44 44 44 44 44 43
24 25 26 28 30 31 32 34 35 36 37 37 40 43 45 45 46 47 47 46 46 46 46 46 46 46 47 46 46 46 47 47 47 47 46 46 46 46 45 45 45 45 45 45 45 45 45 45 45
23 24 26 27 28 30 32 33 35 34 35 37 38 40 42 44 46 47 47 47 47 46 45 45 46 46 47 46 46 46 47 48 48 48 47 47 47 46 45 44 44 45 46 45 44 45 46 46 45
23 23 24 26 27 28 30 33 33 34 35 37 38 40 41 43 44 46 46 47 48 47 46 46 46 46 46 47 47 46 46 47 47 47 47 46 47 47 46 46 45 46 46 46 45 45 45 45 45
21 23 24 26 27 28 30 32 31 32 33 34 37 38 40 41 42 44 45 47 47 47 47 46 47 47 46 45 46 46 46 46 44 45 45 45 45 46 46 46 46 47 47 46 45 45 46 45 45
21 21 23 23 24 26 29 30 30 32 33 34 35 38 39 40 41 42 43 45 46 46 46 47 46 46 47 47 46 46 46 46 45 45 45 46 46 46 45 46 47 47 46 45 45 45 46 46 46
Wind_Direction
232 232 231 230 230 230 230 229 227 225 226 226 225 225 226 227 227 229 225 223 220 220 218 218 218 217 218 221 219 218 219 219 216 214 212 210 206 206 207 228 254 268 283 293 301 305 308 314 314
233 232 231 231 231 231 230 229 227 227 227 227 226 226 226 226 226 226 225 224 222 221 220 221 221 220 220 223 224 223 224 224 225 224 224 226 225 229 238 251 263 274 284 291 296 300 305 307 310
234 232 231 231 232 231 230 229 228 228 227 227 227 227 227 226 225 224 224 225 225 224 224 224 224 224 224 226 229 228 227 228 230 231 233 234 235 238 246 260 270 275 282 287 289 295 303 305 308
233 233 232 232 232 231 230 229 227 227 227 226 227 227 227 226 225 224 224 226 226 227 227 227 228 228 227 228 231 231 230 232 233 235 239 241 245 247 252 262 270 275 281 283 284 290 297 301 304
232 231 232 233 232 231 229 228 227 226 227 227 227 227 227 226 225 225 226 227 227 229 229 230 229 229 229 230 232 232 234 235 237 239 243 245 249 254 259 264 268 273 278 279 281 288 293 297 301
230 231 232 233 232 231 230 228 227 226 226 227 227 227 226 226 226 226 227 229 229 230 231 231 231 232 231 232 233 234 237 239 240 242 245 249 252 255 259 263 267 269 272 276 279 285 292 295 298
230 230 232 233 232 231 230 229 228 227 227 227 227 227 227 225 226 226 228 229 230 231 231 231 232 233 233 234 234 236 239 241 243 244 247 250 253 255 259 261 265 268 272 276 279 283 288 292 296
230 230 230 230 230 229 229 229 228 228 227 227 227 227 227 226 226 226 228 229 231 232 232 232 233 233 233 235 236 238 240 242 244 246 248 251 253 256 260 262 266 269 272 276 278 282 285 288 292
229 229 229 229 229 228 228 229 229 228 228 227 227 227 227 226 226 226 227 228 230 232 233 234 234 234 234 235 238 240 242 243 245 247 250 252 255 258 260 263 266 269 272 275 277 280 283 286 289
228 229 229 228 228 228 227 228 229 228 228 227 227 227 227 227 226 226 226 228 230 232 233 234 235 236 236 237 239 241 243 245 246 249 251 253 256 259 260 262 265 269 272 274 276 279 283 285 288
229 229 228 228 227 227 227 227 227 227 228 227 226 227 228 227 226 226 227 228 230 232 233 235 236 237 237 238 239 241 243 245 248 250 252 253 255 258 261 263 266 269 272 274 277 279 281 284 287
231 229 228 227 227 226 226 226 226 226 227 227 226 227 228 228 227 227 228 229 230 232 233 234 236 237 237 238 238 240 243 245 248 250 252 253 255 257 261 264 267 269 272 274 276 279 280 283 284
231 229 228 228 227 225 226 226 226 226 226 227 227 226 227 228 229 228 229 230 231 233 234 235 236 237 239 240 240 241 244 246 248 251 252 253 255 258 261 264 266 269 271 273 275 277 279 281 283
231 229 229 228 227 226 226 225 226 226 225 226 227 227 226 228 229 229 230 231 231 233 235 236 237 238 239 240 242 243 245 247 249 251 252 253 255 258 260 263 266 269 271 273 275 277 278 279 281
230 229 228 228 228 226 226 225 225 225 225 225 226 227 226 227 228 229 230 231 232 233 235 236 237 238 240 241 243 244 245 247 249 251 253 253 255 257 260 263 265 268 270 272 273 276 278 279 280
229 227 226 227 227 226 226 225 224 224 225 225 226 226 226 227 228 229 230 231 232 233 234 236 237 239 240 241 243 245 246 248 250 252 253 255 257 259 261 263 265 267 269 271 273 275 277 279 280
226 226 225 226 227 226 226 225 224 224 224 225 226 226 226 227 228 229 231 232 233 233 235 237 238 240 241 242 243 245 247 249 251 253 254 256 258 260 261 262 265 266 269 271 272 274 276 278 280
225 226 225 226 227 227 226 226 225 224 224 225 226 226 226 227 228 229 231 232 233 234 236 238 238 240 242 243 244 246 247 248 250 252 254 257 259 260 261 263 264 266 268 270 271 273 276 278 279
225 225 225 226 227 227 227 227 225 224 224 224 226 226 226 227 228 229 231 232 233 235 237 239 240 241 242 244 244 245 247 248 249 251 254 257 259 260 261 263 265 266 268 269 270 272 275 277 278
222 225 226 226 227 228 228 226 225 225 224 224 225 226 225 226 228 230 231 233 234 236 237 238 240 242 243 244 244 246 248 248 249 251 254 255 257 259 262 263 265 266 269 270 270 272 274 276 278
222 224 226 226 226 227 228 227 225 224 223 223 225 227 226 226 227 229 232 234 236 237 238 239 240 242 243 245 246 247 249 249 249 252 254 255 257 260 262 264 265 267 267 269 270 272 274 275 276
223 224 225 225 225 225 225 228 224 224 224 224 225 227 228 228 229 231 233 236 237 239 240 241 242 243 245 246 247 249 250 252 252 253 254 256 258 260 262 264 265 266 268 270 270 272 273 273 274
224 224 225 225 226 229 227 229 226 224 225 226 226 228 229 229 230 232 233 235 238 240 242 243 244 245 247 248 249 250 252 253 253 254 255 256 257 259 262 263 264 266 268 269 271 271 272 273 275
222 221 224 226 229 232 229 231 229 226 225 226 227 228 230 230 231 232 234 236 238 240 242 244 244 246 247 249 250 251 252 253 254 254 255 256 258 259 261 263 265 266 267 268 270 271 271 273 274
220 220 222 225 230 233 231 233 232 228 226 228 229 230 232 233 233 233 236 238 239 241 242 243 245 246 247 249 250 251 251 252 254 256 256 258 259 261 263 265 266 266 268 269 270 271 272 274 274
221 222 225 227 231 233 234 234 233 231 229 230 231 232 233 234 234 235 237 240 240 241 242 243 244 246 247 248 250 251 252 252 254 255 257 260 261 263 264 267 267 267 269 270 271 272 273 274 275
224 224 225 231 235 237 237 236 234 234 232 233 234 234 234 235 235 236 238 240 240 241 242 243 244 245 246 248 250 252 253 253 254 256 257 259 260 262 264 266 267 269 270 270 271 273 274 275 276
229 228 229 233 237 240 241 240 237 234 234 235 236 236 236 236 236 237 237 239 241 242 242 242 243 245 247 249 250 252 254 255 256 256 256 258 261 262 264 265 267 269 270 271 273 274 275 276 276
233 233 235 236 238 242 244 243 241 238 238 237 238 237 237 237 238 240 240 239 241 243 245 245 246 248 249 250 251 252 254 255 257 257 258 259 261 263 264 265 268 269 271 273 274 274 275 276 276
239 240 240 239 242 243 244 244 242 241 241 240 239 238 238 238 240 241 241 241 241 243 245 246 248 249 250 251 252 253 254 256 257 259 260 261 262 263 264 265 268 269 272 273 273 274 275 275 276
Height
5829 5831 5834 5837 5839 5841 5844 5850 5854 5857 5860 5862 5864 5866 5869 5871 5874 5877 5876 5876 5877 5879 5880 5881 5882 5883 5884 5885 5885 5886 5887 5887 5887 5887 5888 5888 5888 5888 5888 5887 5887 5887 5887 5886 5886 5885 5885 5884 5884
5821 5824 5827 5829 5831 5834 5840 5846 5850 5853 5856 5858 5860 5863 5865 5867 5869 5871 5873 5874 5875 5877 5878 5879 5881 5881 5882 5883 5884 5885 5885 5886 5886 5886 5887 5887 5887 5887 5887 5887 5887 5886 5886 5885 5885 5885 5884 5883 5883
5813 5816 5819 5820 5823 5829 5836 5841 5845 5848 5850 5853 5856 5858 5861 5863 5866 5868 5870 5871 5873 5874 5876 5877 5878 5880 5880 5881 5882 5883 5884 5884 5885 5885 5886 5886 5886 5886 5886 5886 5885 5885 5885 5885 5884 5883 5883 5882 5881
5804 5806 5809 5812 5817 5824 5830 5835 5838 5842 5845 5848 5851 5854 5857 5860 5862 5864 5866 5868 5870 5871 5873 5875 5876 5877 5878 5879 5880 5881 5882 5883 5883 5884 5884 5884 5885 5885 5885 5884 5884 5884 5884 5883 5883 5882 5881 5880 5880
5793 5796 5799 5803 5810 5818 5823 5828 5832 5835 5839 5843 5846 5849 5853 5856 5858 5860 5862 5864 5866 5868 5870 5872 5873 5875 5876 5877 5878 5879 5880 5881 5881 5882 5882 5883 5883 5883 5883 5883 5882 5882 5882 5882 5881 5880 5880 5879 5878
5782 5785 5790 5795 5804 5811 5817 5821 5825 5829 5833 5837 5840 5844 5847 5851 5854 5856 5858 5861 5863 5865 5867 5868 5870 5872 5873 5875 5876 5877 5878 5878 5879 5879 5880 5880 5881 5881 5881 5881 5881 5880 5880 5880 5879 5879 5878 5877 5876
5772 5776 5781 5789 5796 5802 5809 5813 5818 5822 5826 5830 5834 5838 5842 5845 5848 5851 5854 5857 5859 5861 5863 5865 5867 5869 5870 5872 5873 5874 5875 5876 5876 5877 5877 5878 5878 5878 5878 5878 5878 5878 5878 5877 5877 5876 5875 5874 5873
5761 5767 5772 5779 5786 5795 5801 5805 5809 5814 5819 5823 5827 5832 5836 5840 5843 5846 5849 5852 5854 5857 5859 5861 5863 5865 5867 5868 5870 5871 5872 5873 5873 5874 5874 5875 5875 5875 5875 5876 5876 5875 5875 5875 5874 5873 5873 5872 5871
5750 5757 5763 5771 5779 5786 5792 5796 5801 5806 5811 5816 5820 5825 5830 5833 5837 5840 5844 5847 5850 5852 5854 5857 5859 5861 5863 5864 5866 5867 5868 5869 5870 5871 5871 5871 5872 5872 5872 5872 5872 5872 5872 5872 5871 5870 5870 5869 5868
5739 5746 5756 5763 5769 5776 5782 5787 5793 5798 5803 5808 5813 5818 5822 5826 5830 5834 5838 5842 5845 5848 5850 5852 5855 5857 5858 5860 5862 5863 5864 5865 5866 5867 5867 5868 5868 5868 5868 5869 5869 5869 5868 5868 5868 5867 5866 5865 5864
5730 5738 5747 5752 5759 5766 5772 5778 5783 5789 5795 5801 5806 5811 5815 5819 5824 5828 5832 5836 5839 5842 5845 5847 5850 5852 5854 5856 5857 5859 5860 5861 5862 5862 5863 5864 5864 5864 5864 5865 5865 5865 5864 5864 5864 5863 5862 5861 5860
5722 5729 5736 5742 5749 5756 5762 5768 5774 5780 5787 5792 5797 5802 5807 5812 5817 5821 5825 5829 5833 5836 5839 5842 5844 5846 5848 5850 5852 5854 5855 5856 5857 5858 5858 5859 5859 5860 5860 5860 5860 5860 5860 5860 5859 5859 5858 5857 5855
5712 5719 5725 5732 5738 5746 5752 5759 5765 5771 5778 5783 5788 5794 5800 5805 5810 5814 5818 5822 5826 5829 5832 5836 5838 5841 5843 5845 5846 5848 5850 5851 5852 5853 5854 5854 5854 5855 5855 5855 5855 5855 5855 5855 5854 5854 5853 5852 5851
5704 5709 5715 5721 5728 5735 5742 5749 5755 5762 5768 5774 5780 5786 5791 5797 5802 5807 5811 5815 5819 5823 5826 5829 5832 5834 5837 5839 5841 5842 5844 5845 5846 5847 5848 5848 5849 5849 5850 5850 5850 5850 5849 5849 5849 5848 5847 5846 5845
5694 5699 5705 5711 5717 5725 5732 5739 5746 5753 5759 5765 5771 5777 5783 5788 5794 5799 5804 5808 5812 5816 5819 5822 5825 5828 5830 5832 5834 5835 5837 5839 5840 5841 5841 5842 5843 5843 5844 5844 5844 5844 5844 5843 5843 5842 5841 5840 5839
5684 5689 5695 5702 5708 5715 5723 5730 5737 5743 5749 5756 5763 5769 5775 5781 5786 5791 5796 5800 5804 5808 5812 5815 5818 5820 5823 5825 5827 5828 5830 5832 5833 5834 5835 5835 5836 5837 5837 5838 5838 5838 5837 5837 5836 5836 5835 5834 5833
5674 5680 5687 5694 5699 5705 5712 5720 5727 5734 5740 5747 5754 5760 5767 5772 5778 5783 5788 5792 5797 5801 5804 5807 5810 5813 5815 5817 5819 5821 5823 5824 5825 5826 5827 5828 5829 5829 5830 5830 5831 5831 5830 5830 5830 5829 5828 5827 5826
5668 5674 5680 5686 5691 5697 5703 5711 5719 5725 5731 5738 5745 5751 5758 5764 5770 5775 5779 5784 5788 5792 5796 5799 5802 5805 5807 5809 5811 5813 5815 5816 5817 5819 5820 5820 5821 5822 5822 5823 5823 5823 5823 5823 5822 5822 5821 5820 5818
5663 5669 5674 5679 5684 5690 5696 5702 5709 5716 5723 5730 5736 5742 5749 5755 5761 5766 5771 5776 5780 5784 5787 5791 5794 5796 5799 5801 5803 5805 5806 5808 5809 5811 5812 5812 5813 5814 5814 5815 5815 5815 5815 5815 5815 5814 5813 5812 5810
5656 5662 5667 5673 5677 5682 5688 5694 5701 5707 5714 5721 5727 5734 5740 5746 5752 5757 5762 5767 5771 5776 5779 5782 5785 5788 5790 5792 5795 5797 5798 5799 5801 5802 5803 5804 5805 5806 5806 5807 5807 5807 5807 5807 5806 5806 5805 5804 5802
5651 5656 5662 5667 5671 5675 5680 5685 5692 5699 5705 5712 5718 5725 5731 5738 5743 5748 5753 5758 5763 5766 5770 5773 5776 5779 5781 5783 5786 5787 5788 5790 5792 5793 5795 5796 5796 5797 5798 5799 5799 5799 5799 5798 5798 5797 5796 5795 5794
5647 5652 5657 5661 5665 5668 5673 5677 5685 5690 5697 5703 5710 5716 5722 5728 5734 5739 5744 5748 5753 5757 5760 5764 5767 5769 5771 5774 5776 5778 5779 5781 5783 5785 5786 5786 5787 5788 5789 5790 5790 5790 5790 5790 5789 5788 5787 5787 5786
5644 5648 5652 5656 5659 5663 5667 5670 5677 5682 5688 5696 5702 5707 5713 5719 5724 5730 5734 5739 5743 5747 5750 5753 5756 5759 5762 5764 5766 5768 5770 5771 5773 5775 5776 5777 5778 5779 5780 5780 5780 5780 5780 5780 5780 5779 5778 5778 5777
5640 5644 5648 5651 5653 5656 5660 5664 5670 5675 5682 5688 5693 5698 5704 5709 5715 5719 5724 5729 5733 5737 5740 5743 5746 5749 5751 5754 5756 5758 5759 5761 5763 5764 5766 5767 5769 5769 5770 5770 5771 5771 5771 5771 5770 5769 5768 5768 5767
5636 5640 5642 5644 5646 5649 5654 5657 5663 5669 5675 5680 5685 5690 5695 5700 5705 5710 5714 5719 5723 5727 5730 5733 5736 5739 5741 5743 5745 5747 5749 5751 5753 5754 5755 5757 5759 5759 5760 5760 5760 5761 5761 5760 5760 5760 5759 5758 5757
5632 5635 5638 5640 5642 5645 5648 5651 5658 5663 5668 5672 5676 5681 5685 5690 5695 5700 5704 5709 5713 5716 5719 5722 5725 5728 5730 5733 5735 5736 5738 5740 5742 5744 5746 5747 5748 5749 5750 5750 5750 5750 5750 5750 5750 5750 5749 5748 5747
5628 5630 5634 5636 5638 5640 5642 5646 5651 5655 5660 5664 5668 5672 5676 5680 5685 5690 5694 5698 5702 5706 5709 5712 5715 5717 5720 5722 5724 5726 5728 5730 5732 5734 5735 5737 5738 5739 5739 5739 5739 5739 5740 5740 5739 5739 5738 5737 5736
5624 5627 5629 5630 5632 5634 5637 5640 5645 5648 5652 5656 5660 5664 5667 5671 5675 5680 5684 5687 5691 5695 5698 5701 5704 5707 5709 5712 5714 5717 5718 5720 5721 5723 5725 5726 5727 5728 5729 5730 5729 5729 5729 5729 5729 5728 5727 5726 5725
5620 5622 5624 5626 5628 5629 5631 5637 5639 5642 5645 5649 5653 5656 5659 5662 5666 5670 5673 5677 5681 5684 5688 5691 5694 5697 5699 5702 5704 5706 5708 5709 5711 5713 5714 5715 5717 5718 5718 5719 5719 5719 5719 5718 5718 5717 5716 5715 5714
5615 5618 5619 5622 5623 5624 5626 5632 5632 5635 5638 5641 5644 5647 5650 5654 5657 5660 5663 5667 5670 5674 5678 5681 5684 5686 5689 5691 5693 5695 5697 5699 5701 5702 5703 5704 5705 5706 5707 5707 5708 5708 5707 5707 5706 5705 5705 5704 5703